Location: Churchill Northern Studies Centre
(58.7378°N, 93.8201°W)
Time: 18:14:56
(UTC-06:00)

Envisat - Pass Details

Date: 11 October 2017
Orbit: 764 x 766 km, 98.2° (Epoch: 13 December)

Event Time Altitude Azimuth Distance (km) Brightness Sun altitude
Exits shadow 21:10:58 16° 186° (S) 1,939 4.9 -22.7°
Maximum altitude 21:14:58 53° 260° (W) 945 3.7 -23.1°
Drops below altitude 10° 21:19:59 10° 337° (NNW) 2,321 6.1 -23.7°
Sets 21:22:22 0° 342° (NNW) 3,252 6.9 -24.0°
